This is the latest recevied weather packets stored in our database for station/object KB1JDX. If no packets are shown the sender has not sent any weather packets the latest 10 day(s).
| Time | Temp. | Humidity | Pressure | Rain* | Wind** | Luminosity | Snow |
|---|---|---|---|---|---|---|---|
| 1787663894 | 18.33° C | 100% | 1014.8 hPa | 0 mm | 0 m/s | - | - |
| 1787663826 | 18.33° C | 100% | 1014.8 hPa | 0 mm | 0 m/s | - | - |
| 1787662693 | 17.78° C | 100% | 1014.7 hPa | 0 mm | 0 m/s | - | - |
| 1787661494 | 16.67° C | 100% | 1014.8 hPa | 0 mm | 0 m/s | - | - |
| 1787660294 | 15.56° C | 100% | 1014.7 hPa | 0 mm | 0 m/s | - | - |
| 1787660226 | 15.56° C | 100% | 1014.7 hPa | 0 mm | 0 m/s | - | - |
| 1787657893 | 14.44° C | 100% | 1014.6 hPa | 0 mm | 0 m/s | - | - |
| 1787656693 | 13.89° C | 100% | 1014.5 hPa | 0 mm | 0 m/s | - | - |
| 1787656626 | 13.89° C | 100% | 1014.5 hPa | 0 mm | 0 m/s | - | - |
| 1787654293 | 13.89° C | 100% | 1014.1 hPa | 0 mm | 0 m/s | - | - |
| 1787653093 | 13.89° C | 100% | 1014.1 hPa | 0 mm | 0 m/s | - | - |
| 1787653026 | 13.89° C | 100% | 1014.1 hPa | 0 mm | 0 m/s | - | - |
| 1787649426 | 14.44° C | 100% | 1013.5 hPa | 0 mm | 0 m/s | - | - |
| 1787647093 | 14.44° C | 100% | 1013.6 hPa | 0 mm | 0 m/s | - | - |
| 1787645826 | 14.44° C | 100% | 1013.6 hPa | 0 mm | 0 m/s | - | - |
| 1787643495 | 15° C | 100% | 1013.6 hPa | 0 mm | 0 m/s | - | - |
| 1787642226 | 15.56° C | 100% | 1013.7 hPa | 0 mm | 0 m/s | - | - |
| 1787638694 | 15.56° C | 100% | 1013.5 hPa | 0 mm | 0 m/s | - | - |
| 1787638626 | 15.56° C | 100% | 1013.6 hPa | 0 mm | 0 m/s | - | - |
| 1787637495 | 16.11° C | 100% | 1013.6 hPa | 0 mm | 0 m/s | - | - |
| 1787635093 | 16.67° C | 100% | 1013.9 hPa | 0 mm | 0 m/s | - | - |
| 1787635026 | 16.67° C | 100% | 1013.9 hPa | 0 mm | 0 m/s | - | - |
| 1787633892 | 16.67° C | 100% | 1013.9 hPa | 0 mm | 0 m/s | - | - |
| 1787632693 | 17.22° C | 100% | 1013.9 hPa | 0 mm | 0 m/s | - | - |
| 1787631426 | 17.22° C | 100% | 1014.1 hPa | 0 mm | 0 m/s | - | - |
* Rain latest hour (hover to see other rain measurements)
** Current wind speed in m/s (hover to see current wind gust speed)